Zurück zum Katalog

STARLINK-30825

AktivKommunikationVLEO
NORAD 58384·PAYLOAD·🇺🇸 United States

Gestartet Nov 20, 2023 von Vandenberg Space Force Base

Loading…

Nächste Überflüge (nächste 24 Stunden)

TLE

AktuellSource: CelesTrak SupGP

Epoche: Sep 15, 2026, 03:01 UTC

1 58384C 23178L   26258.12618056 -.00081047  00000+0 -23951-2 0  2582
2 58384  53.1582 196.7953 0001343  84.9147   7.2783 15.34424290    10

Verfolge STARLINK-30825 in Echtzeit mit AllMySat

Download on the App Store